Regional Weather Roundup
Issued by NWS Upton, NY

Current Version | Previous Version | Text Only | Print | Product List | Glossary On
Versions: 1 2 3 4 5 6 7 8 9 10 11 12 13 14 15 16 17 18 19 20 21 22 23 24 25 26 27 28 29 30 31 32 33 34 35 36 37 38 39 40 41 42 43 44 45 46 47 48 49 50
698 ASUS41 KOKX 191808 RWROKX REGIONAL WEATHER ROUNDUP NATIONAL WEATHER SERVICE NEW YORK NY 100 PM EST SUN FEB 19 2017 NOTE: "FAIR" INDICATES FEW OR NO CLOUDS BELOW 12,000 FEET WITH NO SIGNIFICANT WEATHER AND/OR OBSTRUCTIONS TO VISIBILITY. NYZ071-072-176-178-NJZ106-104-191900- NEW YORK CITY METRO AREA CITY SKY/WX TMP DP RH WIND PRES REMARKS Central Park PTSUNNY 63 35 35 NW7 29.82F Wall St Helipt NOT AVBL LaGuardia APRT PTSUNNY 64 34 32 NW12 29.79F Kennedy INTL CLOUDY 63 39 41 W8 29.81F Breezy Point N/A 57 N/A N/A W7 N/A Newark/Liberty CLOUDY 66 35 31 W13G22 29.81S Teterboro PTSUNNY 63 37 38 W12 29.79F $$ NYZ177-179-078>081-191900- LONG ISLAND NEW YORK CITY SKY/WX TMP DP RH WIND PRES REMARKS Jones Beach N/A 50 N/A N/A SW9 N/A Matinecock PT N/A 54 N/A N/A SW6 N/A Farmingdale MOSUNNY 63 34 33 NW10G17 29.79F MacArthur/ISP PTSUNNY 62 36 37 W12 29.78F Shirley LGT RAIN 60 36 40 W12 29.78F Westhampton PTSUNNY 61 34 36 W10 29.79F Southampton NOT AVBL Bridgehampton NOT AVBL East Hampton N/A 60 35 39 W8 29.76F Montauk N/A 57 38 48 W8 29.77F $$ NYZ052-065-067-191900- HUDSON VALLEY CITY SKY/WX TMP DP RH WIND PRES REMARKS White Plains MOSUNNY 59 34 39 NW17 29.78S Newburgh MOSUNNY 55 37 50 W17 29.79F Montgomery SUNNY 58 34 40 W10 29.77F Poughkeepsie MOSUNNY 53 34 48 W12 29.76F Albany MOSUNNY 51 32 48 W22G31 29.77S $$ NJZ001-105-106-008-010-013-015-019>022-104-191900- NEW JERSEY CITY SKY/WX TMP DP RH WIND PRES REMARKS Newark/Liberty CLOUDY 66 35 31 W13G22 29.81S Teterboro PTSUNNY 63 37 38 W12 29.79F Caldwell CLOUDY 62 36 37 NW9 29.81S Somerville CLOUDY 64 35 34 VRB6 29.80F Linden NOT AVBL Sussex MOSUNNY 59 35 40 W7 29.81F Andover N/A 58 35 42 CALM 29.82S Trenton CLOUDY 64 38 38 W8 29.83F Millville SUNNY 69 43 38 W12 29.84F Atlantic City SUNNY 68 39 34 SW7 29.83F Wrightstown PTSUNNY 65 36 34 NW13 29.81F Toms River MOSUNNY 66 36 32 NW13 29.83F Belmar CLOUDY 66 36 32 W14 29.82F $$ PAZ047>061-062-071-191900- EASTERN PENNSYLVANIA CITY SKY/WX TMP DP RH WIND PRES REMARKS Philadelphia PTSUNNY 66 40 38 SW8 29.84F Allentown CLOUDY 64 36 35 W14 29.83F Scranton SUNNY 58 40 51 W10 29.83F $$ CTZ002-004>006-009-010-012-RIZ004-006-007-MAZ004-011-015-191900- SOUTHERN NEW ENGLAND IN CT CITY SKY/WX TMP DP RH WIND PRES REMARKS Bradley INTL MOSUNNY 55 30 38 W17G25 29.73F Hartford MOSUNNY 59 32 36 NW10G18 29.74F Danbury MOSUNNY 56 33 42 W9 29.78F Wtrbury/Oxford MOSUNNY 57 32 38 W9 29.78F Bridgeport MOSUNNY 63 35 35 W8 29.76F Meriden SUNNY 60 32 34 W8 29.75F New Haven MOSUNNY 53 38 56 S6 29.76F Chester N/A 61 32 33 VRB7G14 29.75F Groton MOSUNNY 51 39 63 SW10 29.75F Wilimantic MOSUNNY 59 33 37 W7G16 29.74F IN RI CITY SKY/WX TMP DP RH WIND PRES REMARKS Providence PTSUNNY 60 33 36 W8 29.72F Block Island PTSUNNY 55 38 52 W16 29.76F Westerly MOSUNNY 53 36 52 SW9 29.76F IN MA CITY SKY/WX TMP DP RH WIND PRES REMARKS Boston PTSUNNY 56 34 43 W22G31 29.67F Worcester MOSUNNY 53 30 41 W16 29.68F Westfield SUNNY 55 31 39 W13 29.72F Provincetown CLOUDY 59 39 47 SW15 29.68F Nantucket PTSUNNY 53 36 52 W20G28 29.73F $$ ANZ330-335-338-340-345-350-353-355-191900- COASTAL MARINE OBSERVATIONS STATION/POSITION TIME SKY/WX TEMP WIND PRES VSBY WAVE AIR SEA DIR/SP/G HT/PER (UTC) (F) (DEG/KT/KT) (MB) (MI) (FT/S) NY HARB ENTRANCE 1650 51 42 280/ 8/ 8 1009.6 2/ 6 20 S FIRE ISLAND 1750 47 40 250/ 10/ 10 1009.2 3/ 6 GREAT SOUTH BAY NOT AVBL 23 SSW MONTAUK P 1650 47 44 1009.0 3/ 6 15 E BARNEGAT LI 1730 43 N/A 3/ 6 HUDSON CANYON 1650 51 1010.1 4/ 7 KINGS POINT 1742 57 38 1008.7 EXECUTION ROCKS NOT AVBL CENTRAL LI SOUND 1715 44 240/ 8/ 10 N/A 0 EASTERN LI SOUND NOT AVBL ROBBINS REEF 1748 61 280/ 14/ 18 1009.4 $$ >>>>>>>>>>>>>>>>>>>>>>>>>>>> KEY <<<<<<<<<<<<<<<<<<<<<<<<<<< > < > SKY/WX - Sky Condition/Present Weather < > TMP - Temperature in Fahrenheit < > DP - Dew Point in Fahrenheit < > RH - Relative Humidity in Percent < > WIND - Direction (from) and Speed in MPH < > PRES - Mean Sea Level Pressure (inches of Hg) < > WCI - Wind Chill Index < > VSB - VISIBILITY IN MILES < > HX - HEAT INDEX < > TC - TEMPERATURE IN CELSIUS < > VRB - VARIABLE WIND DIRECTION < > < >>>>>>>>>>>>>>>>>>>>>>>>>>>> KEY <<<<<<<<<<<<<<<<<<<<<<<<<<<

USA.gov is the U.S. government's official web portal to all federal, state and local government web resources and services.